Temperature
22 23 23 23 24 24 24 24 25 25 24 24 24 25 26 25 23 23 23 23 22 22 21 19 18 17 17 16 16 15 15 14 14 13 13 13 13 13 13 12 12 12 12 12
23 23 24 24 24 23 24 24 25 25 24 24 24 25 26 26 24 24 24 23 23 22 20 19 18 17 17 16 16 16 15 14 14 13 13 13 12 13 12 12 12 12 12 12
24 24 24 23 23 23 24 24 25 24 24 24 24 25 26 26 24 23 23 23 23 22 21 19 18 18 17 16 16 15 15 14 13 13 13 12 12 12 13 12 12 12 12 12
24 24 23 24 24 24 24 24 24 24 24 25 24 24 26 26 24 24 23 22 22 22 21 20 19 18 17 17 16 15 15 14 13 13 13 13 12 13 12 12 12 12 12 12
24 23 24 24 24 24 24 23 24 24 24 25 25 24 26 25 25 25 25 23 22 21 20 20 19 18 17 17 16 15 14 14 13 13 13 12 13 12 12 12 12 12 12 12
23 23 24 24 23 23 22 23 23 24 24 24 25 24 25 26 26 26 25 23 22 21 20 20 19 18 17 16 16 15 14 14 13 13 13 12 12 12 12 12 12 12 12 12
23 23 23 23 23 23 23 24 24 24 24 24 24 24 25 26 25 25 25 24 22 21 20 19 19 18 17 17 16 15 15 14 14 13 13 13 13 13 13 12 12 12 12 12
23 23 24 24 24 24 24 24 24 23 24 24 24 24 26 26 24 23 23 23 22 21 20 19 19 19 18 17 16 16 15 14 14 13 13 13 13 13 13 12 12 12 12 12
24 24 24 24 24 25 24 24 25 24 24 24 25 25 26 26 25 24 23 22 22 21 20 19 19 18 18 17 16 16 15 15 14 14 13 13 13 13 13 12 12 12 12 12
25 24 24 23 23 22 24 25 24 24 23 23 24 25 25 26 25 25 24 23 22 21 20 19 19 18 18 17 16 16 15 15 14 14 14 14 13 13 13 13 12 12 12 12
25 25 24 24 24 24 23 23 24 24 24 23 23 25 26 25 25 25 25 23 22 21 20 20 19 18 18 17 16 16 15 15 15 14 14 14 14 13 13 13 12 12 12 12
24 25 25 25 24 23 24 24 24 24 24 23 23 24 26 25 24 23 24 23 22 21 20 19 19 18 18 17 17 16 16 15 15 15 14 14 14 14 13 13 13 13 12 12
24 24 24 24 23 23 23 23 23 24 24 23 23 24 26 25 24 23 23 23 22 21 20 19 19 18 18 17 17 16 16 16 15 15 15 14 14 14 14 14 13 13 13 13
23 25 24 23 24 24 24 22 22 23 23 24 24 24 26 26 26 25 24 23 22 21 20 20 19 19 18 18 17 17 16 16 16 15 15 15 15 14 14 14 14 13 13 13
23 24 25 24 24 24 24 23 22 23 24 24 25 25 26 26 26 25 24 23 22 22 21 20 19 19 18 18 17 17 17 16 16 16 15 15 15 15 15 15 14 14 14 13
23 23 24 24 24 23 23 24 24 23 23 24 24 24 26 26 26 25 24 23 22 22 21 20 20 19 19 18 18 17 17 16 16 16 16 16 15 15 15 15 15 15 14 14
23 23 23 23 24 23 23 24 24 24 24 24 24 25 26 26 25 24 24 23 23 23 22 21 20 20 19 19 18 18 17 17 16 16 16 16 16 16 16 15 15 15 15 14
22 23 23 23 23 22 24 25 24 23 24 24 24 24 25 24 23 23 23 22 22 22 22 21 21 20 20 19 19 18 18 17 17 17 16 16 16 16 16 16 16 15 15 15
21 22 22 22 22 23 24 25 24 23 24 24 23 23 23 23 23 24 23 22 22 22 22 22 21 21 20 19 19 18 18 17 17 17 17 17 17 16 16 16 16 15 15 15
19 21 22 22 21 21 24 24 22 23 23 23 22 23 22 22 23 25 23 22 22 22 22 21 21 20 20 19 19 18 18 18 17 17 17 17 17 17 16 16 16 15 15 15
20 20 20 21 21 22 23 22 22 22 22 21 21 21 21 22 22 22 21 21 21 22 22 22 21 21 20 20 19 18 18 18 17 17 17 17 17 17 16 16 16 15 15 14
21 21 21 21 21 22 21 21 21 21 20 20 19 19 19 20 20 20 20 20 20 21 22 21 21 21 20 20 19 19 18 18 18 17 17 17 17 16 16 16 15 15 14 14
20 20 20 21 21 20 19 19 18 18 18 18 18 18 18 19 19 19 19 19 20 20 21 21 21 21 20 20 19 19 18 18 18 17 17 17 16 16 16 15 15 14 13 13
20 18 18 19 20 20 19 18 17 17 17 17 17 17 17 18 18 18 19 19 19 20 20 21 20 20 20 20 19 19 18 18 17 17 17 16 16 16 15 15 14 13 12 12
17 18 18 18 19 19 18 17 16 15 15 16 16 16 16 17 17 17 18 18 19 19 19 20 20 20 20 20 19 19 18 18 17 17 16 16 16 15 14 14 13 12 12 12
17 17 17 17 17 17 16 15 14 14 14 14 14 15 15 16 16 16 17 17 18 18 19 19 20 20 19 19 19 19 18 18 17 16 16 16 15 15 14 13 13 12 12 11
Wind_Speed
13 12 13 13 11 5 4 5 6 3 1 6 9 11 9 7 10 12 12 13 13 12 10 10 10 9 8 6 4 2 1 0 2 3 3 3 2 3 3 4 6 6 7 8
12 13 11 7 7 6 6 7 7 3 1 5 8 12 11 9 12 13 14 14 14 12 11 11 12 11 9 7 6 4 2 0 2 2 3 2 3 3 3 3 3 5 6 7
12 8 8 8 9 8 9 8 7 5 3 5 7 10 8 6 8 10 12 13 13 13 13 13 13 12 10 8 6 4 2 1 0 1 2 2 1 2 1 2 3 5 6 6
7 5 9 9 9 9 8 3 6 6 6 5 4 8 6 4 7 10 12 13 13 13 13 13 13 13 11 9 7 5 4 2 1 1 1 2 3 3 3 3 3 3 4 5
6 7 9 9 7 7 2 1 3 5 7 8 6 7 5 2 6 9 11 12 13 13 13 13 13 12 11 9 7 6 5 4 3 1 1 3 2 2 2 3 2 3 3 4
3 3 4 3 1 3 5 3 3 4 6 8 4 6 6 3 3 3 6 10 12 13 13 12 12 11 10 9 8 7 6 5 4 3 3 2 2 2 2 2 3 2 2 2
5 5 4 3 5 5 6 5 4 5 5 4 1 6 6 3 2 4 4 6 9 11 13 13 13 13 12 11 10 8 8 6 5 4 4 3 3 3 2 2 2 3 2 2
6 6 7 6 5 5 7 6 5 4 5 5 3 6 5 1 3 5 5 5 7 11 12 13 14 13 12 12 11 10 8 7 6 5 4 4 3 3 2 2 3 3 3 3
4 4 4 3 3 4 5 6 4 7 7 8 5 5 7 3 4 4 5 6 8 10 12 12 13 13 12 12 12 11 9 8 7 6 5 5 5 4 3 3 3 3 3 3
2 3 5 5 5 1 2 2 3 5 5 7 6 7 5 3 3 3 6 7 8 9 11 12 12 12 12 11 11 11 9 8 7 6 5 4 5 4 4 4 4 4 3 3
3 3 5 6 7 6 5 4 5 5 6 6 7 5 3 6 5 5 6 7 8 10 11 11 12 12 12 12 11 11 10 9 7 7 6 6 5 5 5 4 4 4 4 3
3 4 4 5 2 2 6 7 8 8 7 7 8 7 1 4 6 6 7 7 8 10 10 11 12 12 13 13 12 12 10 9 8 7 6 6 5 5 5 5 4 4 3 3
3 4 5 4 5 5 5 6 8 8 8 9 10 8 1 4 6 7 8 8 8 10 11 11 12 13 13 13 13 12 11 10 8 7 7 7 6 6 5 5 4 4 4 3
3 6 8 8 6 3 5 7 8 10 10 13 14 16 15 13 12 10 9 9 9 11 12 13 13 14 14 14 14 13 12 10 9 8 8 8 7 7 6 5 5 5 4 4
4 9 10 10 9 7 10 10 11 14 15 17 19 19 19 17 15 12 10 10 11 12 13 14 14 14 14 14 14 14 12 11 10 10 9 8 7 6 6 6 6 6 6 6
4 7 10 12 10 9 13 15 16 17 17 18 20 21 20 18 15 13 12 12 13 14 15 15 16 15 16 16 15 14 13 12 11 11 10 9 8 8 7 7 7 7 7 7
5 7 11 14 10 9 15 14 14 13 14 15 18 18 17 15 14 14 13 12 14 15 15 16 16 16 15 16 16 16 14 13 12 12 11 9 9 8 8 7 7 7 8 7
10 12 10 13 13 16 11 4 7 12 14 13 16 17 17 16 15 14 13 13 14 14 14 15 15 15 15 15 15 14 13 13 13 12 11 10 9 8 8 7 8 8 7 7
11 10 9 10 14 15 13 8 6 8 9 8 10 12 14 12 11 10 8 11 13 13 13 14 15 16 15 15 15 15 14 14 13 12 11 10 9 8 7 7 7 7 6 7
5 9 9 9 12 13 9 4 1 6 6 10 12 13 14 10 7 8 8 7 9 9 10 12 13 14 15 15 15 15 15 14 13 12 10 9 8 7 7 6 5 5 5 5
5 6 10 13 13 10 6 4 3 6 5 13 14 14 14 10 10 13 13 9 6 7 9 11 13 13 14 14 15 16 15 14 12 10 9 8 7 6 5 4 3 3 4 4
9 8 10 9 11 7 6 2 1 6 10 13 15 15 16 15 15 14 12 8 5 6 9 12 12 12 12 14 16 16 15 13 11 10 9 8 7 5 4 4 3 2 2 3
6 6 6 6 5 5 6 5 6 8 12 14 16 17 16 17 16 15 12 9 6 7 9 11 12 12 12 14 15 16 13 12 12 11 10 8 7 5 4 4 3 2 1 2
7 3 7 9 9 9 10 8 8 11 14 16 16 17 16 16 17 16 13 10 7 7 9 10 12 13 13 14 14 13 13 13 13 12 10 9 8 7 6 3 2 2 1 0
12 9 12 16 16 14 8 9 13 15 16 17 17 17 16 16 16 15 13 11 8 7 8 10 13 14 15 14 14 13 14 14 13 12 11 10 8 7 6 5 4 3 4 4
15 15 16 17 15 14 17 17 17 17 17 17 18 19 17 16 16 16 14 11 9 9 9 11 13 14 15 15 15 14 14 15 14 12 11 9 8 8 7 8 7 10 8 10
Wind_Direction
171 183 192 199 209 231 235 250 265 286 202 238 256 266 264 224 219 222 216 212 212 213 201 190 188 186 185 185 197 204 242 347 341 341 335 341 353 347 356 6 8 359 0 360
170 196 194 192 200 224 244 259 270 282 242 256 277 276 269 247 230 227 222 215 213 207 196 191 192 191 193 191 202 210 209 335 358 1 349 348 340 337 355 346 2 2 3 1
181 177 175 193 205 222 242 257 280 295 286 243 284 276 256 227 226 226 227 225 216 208 202 195 194 194 193 195 200 205 196 190 253 9 347 325 316 296 321 354 3 2 2 7
181 159 184 205 218 231 246 275 275 270 270 279 279 296 283 227 229 223 218 216 213 205 203 197 193 192 196 195 193 200 191 198 167 240 327 339 336 343 355 342 354 358 10 12
175 181 197 216 229 232 264 31 252 257 267 278 256 276 285 215 244 223 211 209 208 202 198 196 195 192 192 187 185 193 189 195 193 231 276 292 318 336 339 333 349 349 21 13
129 169 219 217 145 190 154 175 191 224 254 267 279 271 284 249 247 219 200 204 203 199 195 193 188 185 184 182 183 188 192 201 204 226 247 274 307 310 328 338 351 349 16 15
166 171 165 166 158 165 202 239 248 239 240 269 160 261 268 293 272 263 244 212 200 195 191 187 183 184 184 184 187 189 195 204 208 222 241 252 269 290 303 324 348 336 348 4
186 178 181 194 222 205 208 237 262 284 289 300 245 257 277 297 268 263 248 223 194 191 191 188 187 186 185 186 189 193 199 208 210 221 235 247 248 262 286 300 307 312 327 345
197 157 143 191 220 213 201 226 278 285 290 288 277 275 288 237 246 229 213 199 193 190 190 190 187 187 187 188 190 195 201 210 213 222 234 243 245 250 263 266 280 294 301 312
239 175 155 152 161 84 292 200 211 256 289 292 289 283 288 308 287 230 212 205 197 190 190 190 187 189 189 189 192 195 204 212 215 222 231 242 244 243 252 264 270 286 291 298
252 220 166 184 215 212 176 203 233 254 268 281 294 303 339 308 303 265 236 217 203 195 193 191 190 190 189 189 191 196 202 209 214 221 226 232 233 238 240 248 258 267 271 268
239 264 224 197 147 315 239 241 234 257 263 259 280 287 325 275 283 266 252 228 211 203 198 195 191 189 188 191 194 199 202 206 211 217 221 227 227 229 237 236 244 252 260 274
203 252 252 204 191 194 220 226 236 255 268 260 263 275 205 265 271 258 248 234 213 203 199 196 193 193 193 194 196 198 204 205 206 210 218 222 223 226 233 234 233 245 248 254
252 256 266 277 301 276 235 218 221 233 254 264 261 274 283 284 280 270 252 236 220 207 201 198 195 196 197 196 200 198 203 203 203 204 215 221 221 223 229 232 233 239 238 241
257 269 268 274 281 269 267 259 233 237 258 270 279 282 284 287 287 282 263 240 222 212 204 201 199 197 196 197 201 203 200 198 201 206 213 220 221 220 226 229 232 236 238 241
268 274 277 271 267 264 266 268 261 254 260 267 275 279 283 285 283 275 259 239 225 216 208 203 201 199 197 196 199 199 199 198 200 208 215 215 219 219 223 230 231 233 238 243
260 270 277 277 276 272 269 267 264 258 252 261 273 285 296 293 282 274 263 242 229 221 209 203 201 200 199 197 197 198 199 196 201 208 213 213 217 221 227 229 231 234 238 240
257 261 267 274 274 267 279 298 274 266 267 273 279 289 299 296 291 279 261 245 235 223 210 203 200 197 197 195 194 195 193 195 201 208 211 211 214 220 224 228 233 237 240 240
235 243 254 262 266 269 277 276 255 259 278 339 321 316 321 318 297 272 257 242 236 225 212 202 198 194 192 192 190 189 191 195 200 205 206 208 211 216 223 229 238 243 245 247
212 226 245 252 262 268 281 322 280 258 254 13 354 342 338 335 310 313 327 274 243 225 208 194 188 189 188 187 186 190 193 194 199 201 201 203 207 212 219 229 242 243 242 251
215 219 236 252 260 266 322 353 215 246 332 357 352 348 344 331 311 316 320 294 249 212 195 184 181 183 183 179 182 192 194 196 193 188 189 190 196 203 211 220 227 237 243 254
265 260 250 254 255 262 35 40 5 355 348 345 344 342 335 324 321 321 318 305 259 207 188 182 180 179 175 177 184 193 194 185 175 173 177 180 184 187 184 189 204 221 236 245
258 278 285 263 281 10 9 353 354 346 338 339 336 334 331 325 325 325 319 307 268 221 194 187 184 175 174 180 188 192 182 171 168 168 170 171 170 167 170 173 176 187 212 254
270 294 280 277 277 304 316 325 335 336 330 329 329 329 327 324 324 323 317 306 278 235 206 192 186 182 182 182 187 186 171 169 170 171 170 168 168 161 155 150 153 149 138 269
281 284 280 280 287 299 290 319 328 327 325 325 325 324 323 321 318 318 312 303 284 248 217 201 198 195 188 180 180 175 169 170 171 170 169 167 163 157 149 130 89 96 69 45
263 267 271 277 294 296 298 313 320 319 321 323 321 318 318 316 313 312 307 300 284 258 228 212 206 200 191 182 178 173 171 172 171 170 169 166 161 156 150 137 113 64 75 76
Height
1494 1496 1498 1498 1498 1499 1499 1501 1501 1499 1500 1502 1500 1497 1494 1497 1501 1502 1503 1506 1508 1511 1514 1516 1518 1519 1520 1521 1522 1523 1522 1521 1520 1519 1519 1518 1517 1516 1514 1513 1510 1509 1507 1505
1495 1495 1493 1495 1498 1501 1501 1502 1500 1498 1500 1500 1497 1494 1489 1492 1495 1497 1498 1501 1504 1508 1511 1513 1515 1517 1519 1520 1521 1522 1521 1521 1520 1518 1518 1517 1516 1515 1514 1512 1511 1509 1507 1505
1490 1491 1494 1498 1500 1502 1500 1501 1499 1500 1500 1499 1499 1492 1486 1487 1492 1494 1496 1497 1500 1504 1507 1510 1512 1514 1516 1518 1519 1520 1520 1519 1519 1518 1517 1517 1516 1515 1514 1513 1511 1509 1507 1505
1489 1493 1495 1497 1497 1498 1500 1498 1500 1501 1502 1498 1500 1500 1485 1484 1487 1489 1492 1494 1497 1500 1503 1506 1509 1511 1513 1516 1517 1518 1519 1519 1518 1517 1517 1517 1516 1516 1514 1513 1511 1510 1508 1506
1492 1493 1494 1496 1495 1496 1499 1501 1500 1499 1499 1498 1495 1499 1485 1483 1484 1483 1486 1490 1493 1496 1500 1503 1506 1508 1511 1513 1515 1516 1517 1517 1517 1517 1516 1516 1516 1515 1514 1513 1512 1510 1509 1507
1492 1494 1494 1494 1497 1498 1502 1501 1500 1499 1497 1503 1495 1499 1491 1478 1479 1479 1482 1486 1490 1493 1497 1500 1503 1506 1508 1511 1512 1514 1515 1516 1516 1516 1516 1516 1515 1515 1514 1513 1512 1511 1510 1508
1494 1494 1495 1497 1498 1501 1500 1502 1506 1505 1504 1499 1495 1498 1488 1476 1479 1481 1482 1484 1487 1490 1494 1497 1500 1503 1505 1508 1510 1512 1513 1514 1515 1515 1515 1515 1515 1515 1514 1513 1512 1511 1510 1509
1495 1496 1493 1494 1493 1494 1495 1497 1506 1513 1507 1497 1493 1493 1479 1476 1479 1481 1482 1483 1485 1488 1491 1494 1497 1500 1503 1505 1508 1510 1512 1513 1514 1514 1515 1515 1514 1514 1514 1512 1512 1511 1510 1509
1489 1493 1492 1493 1493 1492 1495 1494 1491 1497 1498 1502 1489 1483 1475 1473 1476 1478 1480 1482 1484 1486 1488 1491 1494 1497 1500 1503 1505 1508 1510 1511 1512 1513 1513 1513 1513 1513 1513 1512 1511 1511 1510 1508
1484 1491 1491 1494 1495 1497 1494 1491 1496 1499 1506 1506 1495 1488 1481 1473 1473 1475 1477 1480 1482 1484 1486 1489 1492 1494 1498 1501 1503 1506 1507 1509 1510 1511 1512 1512 1512 1512 1511 1511 1510 1510 1509 1507
1484 1487 1492 1492 1492 1490 1497 1497 1494 1493 1497 1505 1503 1489 1472 1473 1473 1473 1475 1477 1480 1482 1484 1486 1489 1492 1495 1498 1501 1503 1505 1507 1508 1509 1510 1510 1510 1510 1510 1509 1509 1508 1508 1507
1486 1484 1486 1487 1488 1490 1489 1488 1490 1497 1495 1495 1498 1489 1469 1472 1473 1474 1474 1475 1477 1479 1481 1484 1486 1489 1492 1495 1498 1500 1503 1504 1506 1507 1508 1508 1509 1508 1509 1508 1508 1507 1507 1506
1487 1487 1490 1492 1493 1492 1490 1489 1489 1488 1490 1491 1496 1486 1468 1471 1471 1471 1472 1473 1474 1476 1478 1480 1483 1485 1488 1492 1495 1497 1500 1502 1503 1505 1506 1507 1507 1507 1508 1508 1507 1506 1506 1505
1489 1484 1489 1494 1487 1483 1487 1490 1490 1489 1489 1486 1483 1477 1467 1465 1465 1467 1468 1469 1470 1472 1474 1476 1479 1481 1484 1488 1491 1494 1496 1499 1501 1502 1503 1505 1505 1506 1506 1506 1505 1505 1505 1504
1488 1484 1480 1480 1480 1483 1483 1483 1486 1486 1480 1480 1473 1469 1463 1460 1460 1461 1463 1464 1466 1467 1469 1471 1474 1477 1480 1483 1487 1490 1493 1495 1497 1499 1501 1502 1503 1504 1504 1504 1504 1504 1503 1503
1487 1485 1482 1482 1478 1481 1482 1477 1476 1477 1475 1473 1470 1465 1457 1456 1456 1457 1457 1459 1460 1461 1464 1466 1469 1472 1475 1478 1482 1486 1489 1491 1494 1496 1498 1500 1501 1501 1502 1502 1502 1502 1501 1501
1485 1484 1485 1482 1475 1480 1479 1468 1468 1468 1466 1467 1465 1458 1452 1452 1452 1452 1452 1453 1453 1455 1458 1461 1464 1467 1471 1474 1477 1481 1485 1488 1490 1493 1495 1496 1497 1498 1499 1499 1499 1499 1499 1499
1484 1483 1482 1480 1480 1487 1467 1459 1462 1463 1461 1459 1458 1455 1453 1451 1449 1448 1447 1447 1448 1450 1453 1455 1459 1462 1466 1470 1473 1477 1481 1483 1486 1489 1491 1493 1494 1495 1496 1496 1496 1496 1496 1495
1482 1481 1481 1480 1480 1473 1462 1458 1461 1462 1458 1457 1456 1454 1452 1449 1445 1441 1441 1442 1443 1445 1447 1450 1454 1458 1462 1465 1469 1473 1476 1479 1482 1485 1487 1489 1491 1492 1492 1493 1493 1493 1492 1492
1482 1480 1479 1477 1481 1477 1462 1456 1459 1460 1459 1459 1457 1454 1451 1448 1444 1438 1439 1438 1439 1441 1443 1446 1449 1454 1457 1461 1465 1469 1472 1475 1478 1481 1483 1485 1487 1488 1489 1489 1489 1489 1488 1488
1478 1479 1478 1475 1473 1463 1457 1459 1460 1464 1463 1461 1459 1456 1453 1450 1448 1444 1440 1437 1436 1437 1439 1442 1445 1449 1453 1456 1460 1464 1468 1471 1474 1477 1479 1481 1483 1484 1485 1485 1485 1485 1484 1484
1473 1472 1471 1470 1472 1467 1462 1461 1462 1464 1463 1461 1459 1456 1453 1449 1445 1441 1438 1435 1434 1434 1436 1439 1442 1445 1449 1452 1456 1460 1464 1467 1470 1473 1475 1477 1479 1480 1481 1481 1481 1481 1480 1480
1473 1471 1469 1468 1465 1465 1466 1466 1467 1466 1464 1461 1458 1455 1452 1447 1443 1440 1437 1434 1433 1433 1434 1436 1439 1442 1445 1448 1452 1456 1459 1463 1466 1469 1471 1473 1475 1476 1477 1477 1477 1477 1477 1477
1471 1474 1472 1468 1462 1463 1465 1465 1465 1465 1463 1460 1457 1454 1450 1446 1442 1439 1435 1433 1431 1431 1431 1433 1435 1438 1441 1444 1448 1452 1455 1458 1462 1464 1467 1469 1471 1472 1473 1473 1474 1474 1474 1474
1476 1474 1470 1467 1464 1463 1462 1463 1463 1462 1460 1457 1454 1452 1448 1444 1440 1437 1433 1431 1429 1428 1428 1429 1431 1434 1436 1440 1443 1447 1450 1454 1457 1460 1463 1465 1467 1468 1469 1470 1470 1470 1470 1470
1474 1472 1470 1465 1465 1465 1462 1462 1461 1459 1456 1453 1450 1446 1444 1441 1437 1433 1430 1428 1426 1425 1424 1425 1427 1429 1432 1435 1438 1441 1445 1449 1452 1455 1458 1460 1462 1464 1465 1466 1466 1467 1467 1467